Location: ???????
(55.4362°N, 38.1183°E)
Time: 03:35:24
(UTC+00:00)

Cosmos 921 Rocket - Pass Details

Date: 17 June 2021
Orbit: 572 x 632 km, 75.8° (Epoch: 26 July)

Event Time Altitude Azimuth Distance (km) Brightness Sun altitude
Exits shadow 23:32:12 - 189° (S) 2,108 5.2 -6.9°
Reaches altitude 10° 23:32:45 10° 188° (S) 1,892 5.0 -6.8°
Maximum altitude 23:36:53 59° 109° (ESE) 668 3.3 -6.6°
Drops below altitude 10° 23:41:00 10° 30° (NNE) 1,892 7.4 -6.3°
Sets 23:43:14 0° 27° (NNE) 2,794 9.2 -6.1°
